User: anonymous   Login
Location: Mount Kobau Star Party
(49.1167°N, 119.7333°W)
Time: 05:48:31
(UTC-08:00)
Language:

TSX-5 - Orbit

View from above orbital plane
View from above orbital plane
View from above satellite
View from above satellite

Ground track
Ground track

The orbit data is extracted from the following two-line orbital elements,

1 26374U 00030A   14328.92198337  .00012512  00000-0  10814-2 0  4638
2 26374 068.9341 137.7084 0692604 251.8874 268.1304 13.95335520725034
Epoch (UTC): 24 November 2014 22:07:39
Eccentricity: 0.0692604
inclination: 68.9341°
perigee height: 405 km
apogee height: 1415 km
right ascension of ascending node: 137.7084°
argument of perigee: 251.8874°
revolutions per day: 13.95335520
mean anomaly at epoch: 268.1304°
orbit number at epoch: 72503

The dashed part of the orbit path shows where the satellite is in the earth's shadow,  

DLR